Time,TemperatureF,DewpointF,PressureIn,WindDirection,WindDirectionDegrees,WindSpeedMPH,WindSpeedGustMPH,Humidity,HourlyPrecipIn,Conditions,Clouds,dailyrainin,SoftwareType,DateUTC
2013-02-03 00:02:00,46.1,24.1,30.31,SSE,168,0.0,3.0,42,0.00,,,0.00,WUHU216DAVISVP2,2013-02-03 07:02:00,
2013-02-03 00:07:00,46.0,24.7,30.31,SSE,168,0.0,2.0,43,0.00,,,0.00,WUHU216DAVISVP2,2013-02-03 07:07:00,
2013-02-03 00:12:00,45.8,25.0,30.30,SSE,168,0.0,0.0,44,0.00,,,0.00,WUHU216DAVISVP2,2013-02-03 07:12:00,
2013-02-03 00:17:00,45.5,24.7,30.30,SSE,168,0.0,0.0,44,0.00,,,0.00,WUHU216DAVISVP2,2013-02-03 07:17:00,
2013-02-03 00:22:00,45.4,24.0,30.30,SSE,168,0.0,0.0,43,0.00,,,0.00,WUHU216DAVISVP2,2013-02-03 07:22:00,
2013-02-03 00:27:00,45.2,23.4,30.30,SSE,168,0.0,0.0,42,0.00,,,0.00,WUHU216DAVISVP2,2013-02-03 07:27:00,
2013-02-03 00:32:00,45.3,23.4,30.30,SSE,168,0.0,0.0,42,0.00,,,0.00,WUHU216DAVISVP2,2013-02-03 07:32:00,
2013-02-03 00:37:00,45.3,23.4,30.29,SSE,168,0.0,0.0,42,0.00,,,0.00,WUHU216DAVISVP2,2013-02-03 07:37:00,
2013-02-03 00:42:00,45.4,22.9,30.29,SSE,168,0.0,0.0,41,0.00,,,0.00,WUHU216DAVISVP2,2013-02-03 07:42:00,
2013-02-03 00:47:00,45.6,23.2,30.29,SSE,168,0.0,0.0,41,0.00,,,0.00,WUHU216DAVISVP2,2013-02-03 07:47:00,
2013-02-03 00:52:00,45.7,22.7,30.29,SSE,168,0.0,0.0,40,0.00,,,0.00,WUHU216DAVISVP2,2013-02-03 07:52:00,
2013-02-03 00:57:00,45.8,22.6,30.29,SSE,168,0.0,0.0,40,0.00,,,0.00,WUHU216DAVISVP2,2013-02-03 07:57:00,
2013-02-03 01:02:00,45.7,22.6,30.29,SSE,168,0.0,0.0,40,0.00,,,0.00,WUHU216DAVISVP2,2013-02-03 08:02:00,
2013-02-03 01:07:00,45.4,25.2,30.28,SSE,168,0.0,0.0,45,0.00,,,0.00,WUHU216DAVISVP2,2013-02-03 08:07:00,
2013-02-03 01:12:00,44.9,24.8,30.28,SSE,168,0.0,2.0,45,0.00,,,0.00,WUHU216DAVISVP2,2013-02-03 08:12:00,
2013-02-03 01:17:00,44.5,25.5,30.28,SSE,168,0.0,2.0,47,0.00,,,0.00,WUHU216DAVISVP2,2013-02-03 08:17:00,
2013-02-03 01:22:00,44.2,25.7,30.28,SSE,168,0.0,0.0,48,0.00,,,0.00,WUHU216DAVISVP2,2013-02-03 08:22:00,
2013-02-03 01:27:00,43.9,25.4,30.28,SSE,168,0.0,0.0,48,0.00,,,0.00,WUHU216DAVISVP2,2013-02-03 08:27:00,
2013-02-03 01:32:00,43.7,25.2,30.27,SSE,168,0.0,1.0,48,0.00,,,0.00,WUHU216DAVISVP2,2013-02-03 08:32:00,
2013-02-03 01:37:00,43.5,26.1,30.27,SSE,168,0.0,1.0,50,0.00,,,0.00,WUHU216DAVISVP2,2013-02-03 08:37:00,
2013-02-03 01:42:00,43.3,24.9,30.27,SSE,168,1.0,2.0,48,0.00,,,0.00,WUHU216DAVISVP2,2013-02-03 08:42:00,
2013-02-03 01:47:00,43.2,25.3,30.27,SSE,168,1.0,2.0,49,0.00,,,0.00,WUHU216DAVISVP2,2013-02-03 08:47:00,
2013-02-03 01:52:00,43.0,26.1,30.27,SSE,168,0.0,2.0,51,0.00,,,0.00,WUHU216DAVISVP2,2013-02-03 08:52:00,
2013-02-03 01:57:00,42.7,26.3,30.26,SSE,168,2.0,2.0,52,0.00,,,0.00,WUHU216DAVISVP2,2013-02-03 08:57:00,
2013-02-03 02:02:00,42.5,26.6,30.26,SSE,168,0.0,2.0,53,0.00,,,0.00,WUHU216DAVISVP2,2013-02-03 09:02:00,
2013-02-03 02:07:00,42.5,26.6,30.26,SSE,168,0.0,1.0,53,0.00,,,0.00,WUHU216DAVISVP2,2013-02-03 09:07:00,
2013-02-03 02:12:00,42.3,26.4,30.26,SSE,168,1.0,2.0,53,0.00,,,0.00,WUHU216DAVISVP2,2013-02-03 09:12:00,
2013-02-03 02:17:00,42.3,25.9,30.26,SSE,168,0.0,2.0,52,0.00,,,0.00,WUHU216DAVISVP2,2013-02-03 09:17:00,
2013-02-03 02:22:00,42.4,26.5,30.25,SSE,168,0.0,2.0,53,0.00,,,0.00,WUHU216DAVISVP2,2013-02-03 09:22:00,
2013-02-03 02:27:00,42.3,25.9,30.25,SSE,168,0.0,1.0,52,0.00,,,0.00,WUHU216DAVISVP2,2013-02-03 09:27:00,
2013-02-03 02:32:00,42.4,25.5,30.25,SSE,168,0.0,2.0,51,0.00,,,0.00,WUHU216DAVISVP2,2013-02-03 09:32:00,
2013-02-03 02:37:00,42.7,25.3,30.25,SSE,168,0.0,2.0,50,0.00,,,0.00,WUHU216DAVISVP2,2013-02-03 09:37:00,
2013-02-03 02:42:00,42.9,25.5,30.25,SSE,168,0.0,1.0,50,0.00,,,0.00,WUHU216DAVISVP2,2013-02-03 09:42:00,
2013-02-03 02:47:00,43.2,24.7,30.25,SSE,168,0.0,1.0,48,0.00,,,0.00,WUHU216DAVISVP2,2013-02-03 09:47:00,
2013-02-03 02:52:00,43.5,24.5,30.25,SSE,168,0.0,0.0,47,0.00,,,0.00,WUHU216DAVISVP2,2013-02-03 09:52:00,
2013-02-03 02:57:00,43.9,23.8,30.24,SSE,168,0.0,0.0,45,0.00,,,0.00,WUHU216DAVISVP2,2013-02-03 09:57:00,
2013-02-03 03:02:00,44.3,24.2,30.24,SSE,168,0.0,1.0,45,0.00,,,0.00,WUHU216DAVISVP2,2013-02-03 10:02:00,
2013-02-03 03:07:00,44.4,24.3,30.24,SSE,168,0.0,1.0,45,0.00,,,0.00,WUHU216DAVISVP2,2013-02-03 10:07:00,
2013-02-03 03:12:00,44.6,23.9,30.24,SSE,168,0.0,2.0,44,0.00,,,0.00,WUHU216DAVISVP2,2013-02-03 10:12:00,
2013-02-03 03:17:00,44.5,24.3,30.23,SSE,168,0.0,2.0,45,0.00,,,0.00,WUHU216DAVISVP2,2013-02-03 10:17:00,
2013-02-03 03:22:00,44.5,24.5,30.23,SSE,168,0.0,1.0,45,0.00,,,0.00,WUHU216DAVISVP2,2013-02-03 10:22:00,
2013-02-03 03:27:00,44.2,25.2,30.23,SSE,168,1.0,2.0,47,0.00,,,0.00,WUHU216DAVISVP2,2013-02-03 10:27:00,
2013-02-03 03:32:00,43.7,25.2,30.23,SSE,168,0.0,3.0,48,0.00,,,0.00,WUHU216DAVISVP2,2013-02-03 10:32:00,
2013-02-03 03:37:00,43.3,25.9,30.22,SSE,168,1.0,3.0,50,0.00,,,0.00,WUHU216DAVISVP2,2013-02-03 10:37:00,
2013-02-03 03:42:00,43.0,26.1,30.22,SSE,168,0.0,3.0,51,0.00,,,0.00,WUHU216DAVISVP2,2013-02-03 10:42:00,
2013-02-03 03:47:00,42.8,25.9,30.22,SSE,168,1.0,2.0,51,0.00,,,0.00,WUHU216DAVISVP2,2013-02-03 10:47:00,
2013-02-03 03:52:00,42.8,25.9,30.21,SSE,168,0.0,2.0,51,0.00,,,0.00,WUHU216DAVISVP2,2013-02-03 10:52:00,
2013-02-03 03:57:00,42.9,25.5,30.21,SSE,168,0.0,2.0,50,0.00,,,0.00,WUHU216DAVISVP2,2013-02-03 10:57:00,
2013-02-03 04:02:00,43.1,25.7,30.21,SSE,168,0.0,2.0,50,0.00,,,0.00,WUHU216DAVISVP2,2013-02-03 11:02:00,
2013-02-03 04:07:00,43.1,24.7,30.21,SSE,168,0.0,2.0,48,0.00,,,0.00,WUHU216DAVISVP2,2013-02-03 11:07:00,
2013-02-03 04:12:00,43.3,24.8,30.20,SSE,168,0.0,2.0,48,0.00,,,0.00,WUHU216DAVISVP2,2013-02-03 11:12:00,
2013-02-03 04:17:00,43.3,26.3,30.20,SSE,168,0.0,2.0,51,0.00,,,0.00,WUHU216DAVISVP2,2013-02-03 11:17:00,
2013-02-03 04:22:00,43.0,26.1,30.20,SSE,168,0.0,1.0,51,0.00,,,0.00,WUHU216DAVISVP2,2013-02-03 11:22:00,
2013-02-03 04:27:00,42.7,26.3,30.20,SSE,168,1.0,1.0,52,0.00,,,0.00,WUHU216DAVISVP2,2013-02-03 11:27:00,
2013-02-03 04:32:00,42.4,26.5,30.19,South,171,2.0,2.0,53,0.00,,,0.00,WUHU216DAVISVP2,2013-02-03 11:32:00,
2013-02-03 04:37:00,42.1,26.2,30.19,South,171,2.0,2.0,53,0.00,,,0.00,WUHU216DAVISVP2,2013-02-03 11:37:00,
2013-02-03 04:43:00,42.2,26.3,30.19,South,171,0.0,2.0,53,0.00,,,0.00,WUHU216DAVISVP2,2013-02-03 11:43:00,
2013-02-03 04:48:00,42.2,25.3,30.19,South,171,0.0,2.0,51,0.00,,,0.00,WUHU216DAVISVP2,2013-02-03 11:48:00,
2013-02-03 04:53:00,42.4,26.0,30.19,South,171,2.0,2.0,52,0.00,,,0.00,WUHU216DAVISVP2,2013-02-03 11:53:00,
2013-02-03 04:58:00,42.5,26.1,30.18,South,171,0.0,2.0,52,0.00,,,0.00,WUHU216DAVISVP2,2013-02-03 11:58:00,
2013-02-03 05:03:00,42.5,26.1,30.18,South,171,0.0,2.0,52,0.00,,,0.00,WUHU216DAVISVP2,2013-02-03 12:03:00,
2013-02-03 05:08:00,42.7,26.3,30.18,South,171,0.0,1.0,52,0.00,,,0.00,WUHU216DAVISVP2,2013-02-03 12:08:00,
2013-02-03 05:13:00,42.7,25.8,30.18,South,171,0.0,1.0,51,0.00,,,0.00,WUHU216DAVISVP2,2013-02-03 12:13:00,
2013-02-03 05:18:00,42.8,25.9,30.17,South,171,0.0,3.0,51,0.00,,,0.00,WUHU216DAVISVP2,2013-02-03 12:18:00,
2013-02-03 05:23:00,42.7,26.3,30.17,South,171,0.0,3.0,52,0.00,,,0.00,WUHU216DAVISVP2,2013-02-03 12:23:00,
2013-02-03 05:28:00,42.5,26.1,30.17,South,171,1.0,2.0,52,0.00,,,0.00,WUHU216DAVISVP2,2013-02-03 12:28:00,
2013-02-03 05:33:00,42.4,26.0,30.17,South,171,0.0,3.0,52,0.00,,,0.00,WUHU216DAVISVP2,2013-02-03 12:33:00,
2013-02-03 05:38:00,42.3,25.9,30.17,South,171,0.0,3.0,52,0.00,,,0.00,WUHU216DAVISVP2,2013-02-03 12:38:00,
2013-02-03 05:43:00,42.3,24.9,30.17,South,171,0.0,0.0,50,0.00,,,0.00,WUHU216DAVISVP2,2013-02-03 12:43:00,
2013-02-03 05:48:00,42.6,26.2,30.17,South,171,0.0,2.0,52,0.00,,,0.00,WUHU216DAVISVP2,2013-02-03 12:48:00,
2013-02-03 05:53:00,42.7,26.3,30.16,South,171,1.0,2.0,52,0.00,,,0.00,WUHU216DAVISVP2,2013-02-03 12:53:00,
2013-02-03 05:58:00,42.5,27.5,30.16,South,171,0.0,2.0,55,0.00,,,0.00,WUHU216DAVISVP2,2013-02-03 12:58:00,
2013-02-03 06:03:00,42.4,27.8,30.16,South,173,0.0,2.0,56,0.00,,,0.00,WUHU216DAVISVP2,2013-02-03 13:03:00,
2013-02-03 06:08:00,42.2,27.7,30.16,South,173,0.0,2.0,56,0.00,,,0.00,WUHU216DAVISVP2,2013-02-03 13:08:00,
2013-02-03 06:13:00,42.0,27.4,30.16,South,174,1.0,2.0,56,0.00,,,0.00,WUHU216DAVISVP2,2013-02-03 13:13:00,
2013-02-03 06:18:00,41.7,28.0,30.16,South,178,1.0,3.0,58,0.00,,,0.00,WUHU216DAVISVP2,2013-02-03 13:18:00,
2013-02-03 06:23:00,41.4,28.2,30.16,South,180,1.0,3.0,59,0.00,,,0.00,WUHU216DAVISVP2,2013-02-03 13:23:00,
2013-02-03 06:28:00,41.5,27.4,30.16,South,180,1.0,3.0,57,0.00,,,0.00,WUHU216DAVISVP2,2013-02-03 13:28:00,
2013-02-03 06:33:00,41.6,27.1,30.16,South,180,1.0,3.0,56,0.00,,,0.00,WUHU216DAVISVP2,2013-02-03 13:33:00,
2013-02-03 06:38:00,41.9,26.5,30.16,South,180,0.0,2.0,54,0.00,,,0.00,WUHU216DAVISVP2,2013-02-03 13:38:00,
2013-02-03 06:43:00,42.2,26.3,30.16,South,180,0.0,2.0,53,0.00,,,0.00,WUHU216DAVISVP2,2013-02-03 13:43:00,
2013-02-03 06:48:00,42.4,26.0,30.16,South,180,0.0,1.0,52,0.00,,,0.00,WUHU216DAVISVP2,2013-02-03 13:48:00,
2013-02-03 06:53:00,42.7,25.3,30.16,South,180,0.0,1.0,50,0.00,,,0.00,WUHU216DAVISVP2,2013-02-03 13:53:00,
2013-02-03 06:58:00,43.3,24.8,30.16,South,180,0.0,1.0,48,0.00,,,0.00,WUHU216DAVISVP2,2013-02-03 13:58:00,
2013-02-03 07:03:00,43.7,24.2,30.16,South,180,1.0,1.0,46,0.00,,,0.00,WUHU216DAVISVP2,2013-02-03 14:03:00,
2013-02-03 07:08:00,44.1,24.5,30.16,South,180,0.0,2.0,46,0.00,,,0.00,WUHU216DAVISVP2,2013-02-03 14:08:00,
2013-02-03 07:13:00,44.3,24.2,30.16,South,180,1.0,2.0,45,0.00,,,0.00,WUHU216DAVISVP2,2013-02-03 14:13:00,
2013-02-03 07:18:00,44.5,24.3,30.16,South,180,1.0,2.0,45,0.00,,,0.00,WUHU216DAVISVP2,2013-02-03 14:18:00,
2013-02-03 07:23:00,44.7,24.0,30.16,South,180,1.0,2.0,44,0.00,,,0.00,WUHU216DAVISVP2,2013-02-03 14:23:00,
2013-02-03 07:28:00,44.9,24.2,30.16,South,180,0.0,1.0,44,0.00,,,0.00,WUHU216DAVISVP2,2013-02-03 14:28:00,
2013-02-03 07:33:00,45.1,24.5,30.16,South,180,0.0,1.0,44,0.00,,,0.00,WUHU216DAVISVP2,2013-02-03 14:33:00,
2013-02-03 07:38:00,45.1,24.3,30.17,South,180,0.0,0.0,44,0.00,,,0.00,WUHU216DAVISVP2,2013-02-03 14:38:00,
2013-02-03 07:43:00,44.9,24.8,30.16,South,180,0.0,0.0,45,0.00,,,0.00,WUHU216DAVISVP2,2013-02-03 14:43:00,
2013-02-03 07:48:00,44.7,24.0,30.17,West,275,2.0,2.0,44,0.00,,,0.00,WUHU216DAVISVP2,2013-02-03 14:48:00,
2013-02-03 07:53:00,44.6,26.0,30.17,West,275,0.0,2.0,48,0.00,,,0.00,WUHU216DAVISVP2,2013-02-03 14:53:00,
2013-02-03 07:58:00,44.2,26.2,30.17,West,275,0.0,2.0,49,0.00,,,0.00,WUHU216DAVISVP2,2013-02-03 14:58:00,
2013-02-03 08:03:00,44.1,26.1,30.17,NW,323,0.0,3.0,49,0.00,,,0.00,WUHU216DAVISVP2,2013-02-03 15:03:00,
2013-02-03 08:08:00,44.0,26.5,30.17,NNE,14,0.0,4.0,50,0.00,,,0.00,WUHU216DAVISVP2,2013-02-03 15:08:00,
2013-02-03 08:13:00,43.7,26.7,30.17,NNE,14,1.0,4.0,51,0.00,,,0.00,WUHU216DAVISVP2,2013-02-03 15:13:00,
2013-02-03 08:18:00,43.4,26.9,30.17,NE,46,2.0,3.0,52,0.00,,,0.00,WUHU216DAVISVP2,2013-02-03 15:18:00,
2013-02-03 08:23:00,43.3,27.3,30.18,NNE,19,2.0,5.0,53,0.00,,,0.00,WUHU216DAVISVP2,2013-02-03 15:23:00,
2013-02-03 08:28:00,43.3,27.3,30.18,NNE,26,3.0,5.0,53,0.00,,,0.00,WUHU216DAVISVP2,2013-02-03 15:28:00,
2013-02-03 08:33:00,43.4,27.4,30.18,NNE,32,3.0,4.0,53,0.00,,,0.00,WUHU216DAVISVP2,2013-02-03 15:33:00,
2013-02-03 08:38:00,43.5,27.5,30.18,NE,35,1.0,4.0,53,0.00,,,0.00,WUHU216DAVISVP2,2013-02-03 15:38:00,
2013-02-03 08:43:00,43.6,27.1,30.18,NNE,17,2.0,4.0,52,0.00,,,0.00,WUHU216DAVISVP2,2013-02-03 15:43:00,
2013-02-03 08:48:00,43.7,27.2,30.18,NE,56,1.0,4.0,52,0.00,,,0.00,WUHU216DAVISVP2,2013-02-03 15:48:00,
2013-02-03 08:53:00,43.8,27.3,30.18,SSE,157,3.0,5.0,52,0.00,,,0.00,WUHU216DAVISVP2,2013-02-03 15:53:00,
2013-02-03 08:58:00,43.8,28.2,30.18,ENE,69,0.0,5.0,54,0.00,,,0.00,WUHU216DAVISVP2,2013-02-03 15:58:00,
2013-02-03 09:03:00,44.0,26.5,30.18,West,267,0.0,5.0,50,0.00,,,0.00,WUHU216DAVISVP2,2013-02-03 16:03:00,
2013-02-03 09:08:00,44.2,29.5,30.19,South,177,0.0,5.0,56,0.00,,,0.00,WUHU216DAVISVP2,2013-02-03 16:08:00,
2013-02-03 09:13:00,44.0,29.3,30.18,SE,140,0.0,4.0,56,0.00,,,0.00,WUHU216DAVISVP2,2013-02-03 16:13:00,
2013-02-03 09:18:00,44.0,28.4,30.18,SE,140,0.0,4.0,54,0.00,,,0.00,WUHU216DAVISVP2,2013-02-03 16:18:00,
2013-02-03 09:23:00,44.3,29.1,30.18,SE,140,0.0,0.0,55,0.00,,,0.00,WUHU216DAVISVP2,2013-02-03 16:23:00,
2013-02-03 09:28:00,45.3,30.6,30.18,West,273,9.0,11.0,56,0.00,,,0.00,WUHU216DAVISVP2,2013-02-03 16:28:00,
2013-02-03 09:33:00,48.3,30.5,30.18,SE,128,0.0,12.0,50,0.00,,,0.00,WUHU216DAVISVP2,2013-02-03 16:33:00,
2013-02-03 09:38:00,48.7,30.9,30.19,SW,226,10.0,12.0,50,0.00,,,0.00,WUHU216DAVISVP2,2013-02-03 16:38:00,
2013-02-03 09:43:00,48.9,31.5,30.18,SSW,194,0.0,12.0,51,0.00,,,0.00,WUHU216DAVISVP2,2013-02-03 16:43:00,
2013-02-03 09:48:00,48.9,32.5,30.18,South,188,1.0,12.0,53,0.00,,,0.00,WUHU216DAVISVP2,2013-02-03 16:48:00,
2013-02-03 09:53:00,48.8,32.4,30.18,SSE,150,3.0,8.0,53,0.00,,,0.00,WUHU216DAVISVP2,2013-02-03 16:53:00,
2013-02-03 09:58:00,48.6,33.2,30.18,SSW,209,3.0,8.0,55,0.00,,,0.00,WUHU216DAVISVP2,2013-02-03 16:58:00,
2013-02-03 10:03:00,48.5,32.6,30.18,South,189,5.0,8.0,54,0.00,,,0.00,WUHU216DAVISVP2,2013-02-03 17:03:00,
2013-02-03 10:08:00,48.6,32.7,30.18,SE,140,0.0,8.0,54,0.00,,,0.00,WUHU216DAVISVP2,2013-02-03 17:08:00,
2013-02-03 10:13:00,48.6,32.7,30.18,SE,144,2.0,7.0,54,0.00,,,0.00,WUHU216DAVISVP2,2013-02-03 17:13:00,
2013-02-03 10:18:00,48.6,34.1,30.18,South,184,2.0,7.0,57,0.00,,,0.00,WUHU216DAVISVP2,2013-02-03 17:18:00,
2013-02-03 10:23:00,48.1,34.5,30.18,South,191,2.0,10.0,59,0.00,,,0.00,WUHU216DAVISVP2,2013-02-03 17:23:00,
2013-02-03 10:28:00,47.8,35.1,30.18,SSE,156,3.0,10.0,61,0.00,,,0.00,WUHU216DAVISVP2,2013-02-03 17:28:00,
2013-02-03 10:33:00,47.8,35.1,30.18,South,187,6.0,7.0,61,0.00,,,0.00,WUHU216DAVISVP2,2013-02-03 17:33:00,
2013-02-03 10:38:00,47.9,34.8,30.18,South,187,3.0,6.0,60,0.00,,,0.00,WUHU216DAVISVP2,2013-02-03 17:38:00,
2013-02-03 10:43:00,47.9,35.2,30.17,SW,225,0.0,6.0,61,0.00,,,0.00,WUHU216DAVISVP2,2013-02-03 17:43:00,
2013-02-03 10:48:00,47.9,34.8,30.17,SW,219,2.0,6.0,60,0.00,,,0.00,WUHU216DAVISVP2,2013-02-03 17:48:00,
2013-02-03 10:53:00,47.9,34.3,30.17,SW,229,3.0,6.0,59,0.00,,,0.00,WUHU216DAVISVP2,2013-02-03 17:53:00,
2013-02-03 10:58:00,47.8,34.7,30.17,SW,236,3.0,6.0,60,0.00,,,0.00,WUHU216DAVISVP2,2013-02-03 17:58:00,
2013-02-03 11:03:00,47.7,34.5,30.17,SW,225,1.0,5.0,60,0.00,,,0.00,WUHU216DAVISVP2,2013-02-03 18:03:00,
2013-02-03 11:08:00,47.6,34.9,30.16,WSW,243,2.0,5.0,61,0.00,,,0.00,WUHU216DAVISVP2,2013-02-03 18:08:00,
2013-02-03 11:13:00,47.3,34.9,30.16,West,265,1.0,5.0,62,0.00,,,0.00,WUHU216DAVISVP2,2013-02-03 18:13:00,
2013-02-03 11:18:00,47.2,35.3,30.16,West,265,0.0,5.0,63,0.00,,,0.00,WUHU216DAVISVP2,2013-02-03 18:18:00,
2013-02-03 11:23:00,47.1,36.0,30.16,West,265,0.0,2.0,65,0.00,,,0.00,WUHU216DAVISVP2,2013-02-03 18:23:00,
2013-02-03 11:28:00,47.0,35.4,30.16,WNW,282,2.0,2.0,64,0.00,,,0.00,WUHU216DAVISVP2,2013-02-03 18:28:00,
2013-02-03 11:33:00,47.0,35.5,30.15,WNW,299,0.0,4.0,64,0.00,,,0.00,WUHU216DAVISVP2,2013-02-03 18:33:00,
2013-02-03 11:38:00,47.0,35.5,30.15,WSW,256,0.0,4.0,64,0.00,,,0.00,WUHU216DAVISVP2,2013-02-03 18:38:00,
2013-02-03 11:43:00,47.3,35.7,30.14,West,271,2.0,3.0,64,0.00,,,0.00,WUHU216DAVISVP2,2013-02-03 18:43:00,
2013-02-03 11:48:00,47.5,35.6,30.14,NW,309,3.0,4.0,63,0.00,,,0.00,WUHU216DAVISVP2,2013-02-03 18:48:00,
2013-02-03 11:53:00,47.5,35.6,30.14,NNW,348,1.0,4.0,63,0.00,,,0.00,WUHU216DAVISVP2,2013-02-03 18:53:00,
2013-02-03 11:58:00,47.4,36.3,30.14,North,9,0.0,4.0,65,0.00,,,0.00,WUHU216DAVISVP2,2013-02-03 18:58:00,
2013-02-03 12:03:00,47.4,37.1,30.14,NNE,24,2.0,4.0,67,0.00,,,0.00,WUHU216DAVISVP2,2013-02-03 19:03:00,
2013-02-03 12:08:00,47.3,37.4,30.14,NE,41,1.0,4.0,68,0.00,,,0.00,WUHU216DAVISVP2,2013-02-03 19:08:00,
2013-02-03 12:13:00,47.1,37.2,30.13,NNE,29,2.0,4.0,68,0.00,,,0.00,WUHU216DAVISVP2,2013-02-03 19:13:00,
2013-02-03 12:18:00,46.9,37.7,30.13,NNE,24,4.0,6.0,70,0.00,,,0.00,WUHU216DAVISVP2,2013-02-03 19:18:00,
2013-02-03 12:23:00,46.7,37.5,30.13,NNE,13,0.0,6.0,70,0.00,,,0.00,WUHU216DAVISVP2,2013-02-03 19:23:00,
2013-02-03 12:28:00,46.8,37.6,30.12,NNE,16,2.0,5.0,70,0.00,,,0.00,WUHU216DAVISVP2,2013-02-03 19:28:00,
2013-02-03 12:34:00,47.0,35.9,30.12,NNE,19,3.0,6.0,65,0.00,,,0.00,WUHU216DAVISVP2,2013-02-03 19:34:00,
2013-02-03 12:38:00,47.4,37.1,30.11,NE,38,3.0,6.0,67,0.00,,,0.00,WUHU216DAVISVP2,2013-02-03 19:38:00,
2013-02-03 12:44:00,47.8,37.5,30.11,NNW,344,3.0,4.0,67,0.00,,,0.00,WUHU216DAVISVP2,2013-02-03 19:44:00,
2013-02-03 12:49:00,47.9,37.6,30.10,NNE,16,3.0,9.0,67,0.00,,,0.00,WUHU216DAVISVP2,2013-02-03 19:49:00,
2013-02-03 12:54:00,47.7,37.8,30.10,ENE,59,4.0,9.0,68,0.00,,,0.00,WUHU216DAVISVP2,2013-02-03 19:54:00,
2013-02-03 12:59:00,47.5,36.8,30.10,North,5,3.0,6.0,66,0.00,,,0.00,WUHU216DAVISVP2,2013-02-03 19:59:00,
2013-02-03 13:04:00,47.4,35.9,30.10,North,355,3.0,6.0,64,0.00,,,0.00,WUHU216DAVISVP2,2013-02-03 20:04:00,
2013-02-03 13:09:00,47.4,36.3,30.09,NNW,333,0.0,6.0,65,0.00,,,0.00,WUHU216DAVISVP2,2013-02-03 20:09:00,
2013-02-03 13:14:00,47.5,36.8,30.10,NNW,341,1.0,5.0,66,0.00,,,0.00,WUHU216DAVISVP2,2013-02-03 20:14:00,
2013-02-03 13:19:00,47.5,37.2,30.09,NW,311,0.0,4.0,67,0.00,,,0.00,WUHU216DAVISVP2,2013-02-03 20:19:00,
2013-02-03 13:24:00,47.5,36.4,30.09,NW,311,1.0,3.0,65,0.00,,,0.00,WUHU216DAVISVP2,2013-02-03 20:24:00,
2013-02-03 13:29:00,47.3,37.4,30.09,NW,311,1.0,3.0,68,0.00,,,0.00,WUHU216DAVISVP2,2013-02-03 20:29:00,
2013-02-03 13:34:00,47.4,38.2,30.08,NW,311,0.0,3.0,70,0.00,,,0.00,WUHU216DAVISVP2,2013-02-03 20:34:00,
2013-02-03 13:39:00,47.6,38.4,30.08,NW,311,2.0,2.0,70,0.00,,,0.00,WUHU216DAVISVP2,2013-02-03 20:39:00,
2013-02-03 13:44:00,47.6,37.7,30.08,NW,311,0.0,2.0,68,0.00,,,0.00,WUHU216DAVISVP2,2013-02-03 20:44:00,
2013-02-03 13:49:00,47.3,37.7,30.08,WNW,296,1.0,2.0,69,0.00,,,0.00,WUHU216DAVISVP2,2013-02-03 20:49:00,
2013-02-03 13:54:00,47.1,39.2,30.08,WNW,292,1.0,2.0,74,0.00,,,0.00,WUHU216DAVISVP2,2013-02-03 20:54:00,
2013-02-03 13:59:00,47.0,38.9,30.07,WNW,292,0.0,2.0,73,0.00,,,0.00,WUHU216DAVISVP2,2013-02-03 20:59:00,
2013-02-03 14:04:00,47.1,39.0,30.07,SSW,204,0.0,2.0,73,0.00,,,0.00,WUHU216DAVISVP2,2013-02-03 21:04:00,
2013-02-03 14:09:00,47.1,39.0,30.07,SSW,205,0.0,2.0,73,0.00,,,0.00,WUHU216DAVISVP2,2013-02-03 21:09:00,
2013-02-03 14:14:00,47.0,38.5,30.07,SSW,205,0.0,2.0,72,0.00,,,0.00,WUHU216DAVISVP2,2013-02-03 21:14:00,
2013-02-03 14:19:00,47.1,38.9,30.07,WNW,286,2.0,3.0,73,0.00,,,0.00,WUHU216DAVISVP2,2013-02-03 21:19:00,
2013-02-03 14:24:00,46.8,38.9,30.07,WNW,290,0.0,3.0,74,0.00,,,0.00,WUHU216DAVISVP2,2013-02-03 21:24:00,
2013-02-03 14:29:00,46.6,39.2,30.07,WNW,290,1.0,3.0,75,0.00,,,0.00,WUHU216DAVISVP2,2013-02-03 21:29:00,
2013-02-03 14:34:00,46.6,39.5,30.06,WNW,290,1.0,3.0,76,0.01,,,0.01,WUHU216DAVISVP2,2013-02-03 21:34:00,
2013-02-03 14:39:00,46.7,40.2,30.06,SSE,167,2.0,4.0,78,0.01,,,0.01,WUHU216DAVISVP2,2013-02-03 21:39:00,
2013-02-03 14:44:00,46.6,40.5,30.06,South,174,0.0,4.0,79,0.01,,,0.01,WUHU216DAVISVP2,2013-02-03 21:44:00,
2013-02-03 14:49:00,46.5,40.1,30.06,SSE,158,2.0,3.0,78,0.01,,,0.01,WUHU216DAVISVP2,2013-02-03 21:49:00,
2013-02-03 14:54:00,46.3,40.2,30.06,South,178,0.0,3.0,79,0.01,,,0.01,WUHU216DAVISVP2,2013-02-03 21:54:00,
2013-02-03 14:59:00,46.1,40.6,30.06,SSE,157,2.0,3.0,81,0.01,,,0.01,WUHU216DAVISVP2,2013-02-03 21:59:00,
2013-02-03 15:04:00,46.0,39.9,30.05,South,171,0.0,3.0,79,0.01,,,0.01,WUHU216DAVISVP2,2013-02-03 22:04:00,
2013-02-03 15:09:00,45.9,39.5,30.05,South,175,0.0,3.0,78,0.01,,,0.01,WUHU216DAVISVP2,2013-02-03 22:09:00,
2013-02-03 15:14:00,46.0,40.2,30.05,South,175,0.0,3.0,80,0.01,,,0.01,WUHU216DAVISVP2,2013-02-03 22:14:00,
2013-02-03 15:19:00,45.9,40.1,30.05,SSE,155,0.0,4.0,80,0.02,,,0.02,WUHU216DAVISVP2,2013-02-03 22:19:00,
2013-02-03 15:23:00,46.0,40.8,30.05,SSE,151,2.0,4.0,82,0.02,,,0.02,WUHU216DAVISVP2,2013-02-03 22:23:00,
2013-02-03 15:28:00,46.0,41.1,30.05,SSE,151,0.0,2.0,83,0.02,,,0.02,WUHU216DAVISVP2,2013-02-03 22:28:00,
2013-02-03 15:33:00,46.0,40.5,30.05,SSE,151,0.0,2.0,81,0.01,,,0.02,WUHU216DAVISVP2,2013-02-03 22:33:00,
2013-02-03 15:38:00,45.8,40.0,30.05,SSE,150,0.0,2.0,80,0.01,,,0.02,WUHU216DAVISVP2,2013-02-03 22:38:00,
2013-02-03 15:44:00,45.8,40.9,30.05,ESE,107,2.0,3.0,83,0.01,,,0.02,WUHU216DAVISVP2,2013-02-03 22:44:00,
2013-02-03 15:49:00,45.5,39.4,30.05,ENE,69,0.0,4.0,79,0.01,,,0.02,WUHU216DAVISVP2,2013-02-03 22:49:00,
2013-02-03 15:54:00,45.4,39.6,30.05,East,84,1.0,4.0,80,0.01,,,0.02,WUHU216DAVISVP2,2013-02-03 22:54:00,
2013-02-03 15:58:00,45.4,39.9,30.05,NE,46,2.0,5.0,81,0.01,,,0.02,WUHU216DAVISVP2,2013-02-03 22:58:00,
2013-02-03 16:04:00,45.4,39.9,30.05,ENE,68,1.0,5.0,81,0.01,,,0.02,WUHU216DAVISVP2,2013-02-03 23:04:00,
2013-02-03 16:08:00,45.4,39.6,30.06,NE,46,0.0,3.0,80,0.01,,,0.02,WUHU216DAVISVP2,2013-02-03 23:08:00,
2013-02-03 16:13:00,45.4,40.2,30.06,NE,46,0.0,2.0,82,0.01,,,0.02,WUHU216DAVISVP2,2013-02-03 23:13:00,
2013-02-03 16:18:00,45.4,40.2,30.06,ENE,59,0.0,4.0,82,0.00,,,0.02,WUHU216DAVISVP2,2013-02-03 23:18:00,
2013-02-03 16:23:00,45.4,40.5,30.06,ENE,59,0.0,4.0,83,0.00,,,0.02,WUHU216DAVISVP2,2013-02-03 23:23:00,
2013-02-03 16:28:00,45.5,40.6,30.06,ENE,59,2.0,3.0,83,0.00,,,0.02,WUHU216DAVISVP2,2013-02-03 23:28:00,
2013-02-03 16:33:00,45.4,39.9,30.07,ENE,59,2.0,2.0,81,0.00,,,0.02,WUHU216DAVISVP2,2013-02-03 23:33:00,
2013-02-03 16:38:00,45.3,39.8,30.07,ENE,59,0.0,2.0,81,0.00,,,0.02,WUHU216DAVISVP2,2013-02-03 23:38:00,
2013-02-03 16:43:00,45.3,39.8,30.07,NE,40,2.0,3.0,81,0.00,,,0.02,WUHU216DAVISVP2,2013-02-03 23:43:00,
2013-02-03 16:48:00,45.2,39.7,30.07,NE,38,3.0,4.0,81,0.00,,,0.02,WUHU216DAVISVP2,2013-02-03 23:48:00,
2013-02-03 16:53:00,45.1,40.2,30.07,NE,39,0.0,4.0,83,0.00,,,0.02,WUHU216DAVISVP2,2013-02-03 23:53:00,
2013-02-03 16:58:00,45.0,40.5,30.07,NE,39,0.0,2.0,84,0.00,,,0.02,WUHU216DAVISVP2,2013-02-03 23:58:00,
2013-02-03 17:04:00,45.0,40.1,30.08,NE,39,2.0,2.0,83,0.00,,,0.02,WUHU216DAVISVP2,2013-02-04 00:04:00,
2013-02-03 17:09:00,44.7,40.2,30.08,NE,38,2.0,4.0,84,0.00,,,0.02,WUHU216DAVISVP2,2013-02-04 00:09:00,
2013-02-03 17:14:00,44.6,40.4,30.08,NNE,28,1.0,4.0,85,0.00,,,0.02,WUHU216DAVISVP2,2013-02-04 00:14:00,
2013-02-03 17:19:00,44.5,40.3,30.08,NE,44,0.0,4.0,85,0.00,,,0.02,WUHU216DAVISVP2,2013-02-04 00:19:00,
2013-02-03 17:24:00,44.4,40.5,30.08,NE,44,0.0,3.0,86,0.00,,,0.02,WUHU216DAVISVP2,2013-02-04 00:24:00,
2013-02-03 17:29:00,44.3,40.7,30.08,NE,44,2.0,2.0,87,0.00,,,0.02,WUHU216DAVISVP2,2013-02-04 00:29:00,
2013-02-03 17:34:00,44.3,40.4,30.08,NNE,27,1.0,4.0,86,0.00,,,0.02,WUHU216DAVISVP2,2013-02-04 00:34:00,
2013-02-03 17:39:00,44.2,40.6,30.08,NNE,27,1.0,4.0,87,0.00,,,0.02,WUHU216DAVISVP2,2013-02-04 00:39:00,
2013-02-03 17:44:00,44.0,40.4,30.08,NNE,27,1.0,3.0,87,0.00,,,0.02,WUHU216DAVISVP2,2013-02-04 00:44:00,
2013-02-03 17:49:00,43.9,40.3,30.08,NNE,27,0.0,3.0,87,0.00,,,0.02,WUHU216DAVISVP2,2013-02-04 00:49:00,
2013-02-03 17:54:00,43.8,40.4,30.08,NNE,27,0.0,2.0,88,0.01,,,0.03,WUHU216DAVISVP2,2013-02-04 00:54:00,
2013-02-03 17:59:00,43.7,40.4,30.09,NNE,27,0.0,1.0,88,0.01,,,0.03,WUHU216DAVISVP2,2013-02-04 00:59:00,
2013-02-03 18:04:00,43.6,40.6,30.09,NNE,27,0.0,0.0,89,0.01,,,0.03,WUHU216DAVISVP2,2013-02-04 01:04:00,
2013-02-03 18:09:00,43.5,40.4,30.09,NNE,27,0.0,0.0,89,0.01,,,0.03,WUHU216DAVISVP2,2013-02-04 01:09:00,
2013-02-03 18:14:00,43.5,40.4,30.09,NNE,27,0.0,0.0,89,0.01,,,0.03,WUHU216DAVISVP2,2013-02-04 01:14:00,
2013-02-03 18:19:00,43.5,40.4,30.09,NNE,27,0.0,0.0,89,0.01,,,0.03,WUHU216DAVISVP2,2013-02-04 01:19:00,
2013-02-03 18:24:00,43.4,40.6,30.09,NNE,27,0.0,0.0,90,0.01,,,0.03,WUHU216DAVISVP2,2013-02-04 01:24:00,
2013-02-03 18:29:00,43.3,40.5,30.09,NNE,27,0.0,0.0,90,0.01,,,0.03,WUHU216DAVISVP2,2013-02-04 01:29:00,
2013-02-03 18:34:00,43.2,40.4,30.10,NNE,27,0.0,0.0,90,0.01,,,0.03,WUHU216DAVISVP2,2013-02-04 01:34:00,
2013-02-03 18:39:00,43.1,40.4,30.09,NNE,27,0.0,0.0,90,0.01,,,0.03,WUHU216DAVISVP2,2013-02-04 01:39:00,
2013-02-03 18:44:00,43.1,40.3,30.10,NNE,27,0.0,0.0,90,0.01,,,0.03,WUHU216DAVISVP2,2013-02-04 01:44:00,
2013-02-03 18:49:00,43.0,39.9,30.09,NNE,27,0.0,1.0,89,0.01,,,0.03,WUHU216DAVISVP2,2013-02-04 01:49:00,
2013-02-03 18:54:00,42.9,39.8,30.10,NNE,27,0.0,1.0,89,0.00,,,0.03,WUHU216DAVISVP2,2013-02-04 01:54:00,
2013-02-03 18:59:00,42.7,39.9,30.10,NNE,27,0.0,1.0,90,0.00,,,0.03,WUHU216DAVISVP2,2013-02-04 01:59:00,
2013-02-03 19:04:00,42.6,39.8,30.10,NNE,27,0.0,1.0,90,0.00,,,0.03,WUHU216DAVISVP2,2013-02-04 02:04:00,
2013-02-03 19:09:00,42.6,39.8,30.10,NNE,27,0.0,0.0,90,0.00,,,0.03,WUHU216DAVISVP2,2013-02-04 02:09:00,
2013-02-03 19:14:00,42.5,39.8,30.10,NNE,27,0.0,0.0,90,0.00,,,0.03,WUHU216DAVISVP2,2013-02-04 02:14:00,
2013-02-03 19:19:00,42.4,39.6,30.10,NNE,27,0.0,0.0,90,0.00,,,0.03,WUHU216DAVISVP2,2013-02-04 02:19:00,
2013-02-03 19:24:00,42.3,39.5,30.10,NNE,27,0.0,0.0,90,0.00,,,0.03,WUHU216DAVISVP2,2013-02-04 02:24:00,
2013-02-03 19:29:00,42.0,39.2,30.10,NNE,27,0.0,0.0,90,0.00,,,0.03,WUHU216DAVISVP2,2013-02-04 02:29:00,
2013-02-03 19:34:00,41.9,39.4,30.10,NNE,27,0.0,0.0,91,0.00,,,0.03,WUHU216DAVISVP2,2013-02-04 02:34:00,
2013-02-03 19:39:00,41.9,39.4,30.10,NNE,27,0.0,0.0,91,0.00,,,0.03,WUHU216DAVISVP2,2013-02-04 02:39:00,
2013-02-03 19:44:00,41.7,39.2,30.11,NNE,27,0.0,0.0,91,0.00,,,0.03,WUHU216DAVISVP2,2013-02-04 02:44:00,
2013-02-03 19:49:00,41.6,39.1,30.11,NNE,27,0.0,0.0,91,0.00,,,0.03,WUHU216DAVISVP2,2013-02-04 02:49:00,
2013-02-03 19:54:00,41.6,39.1,30.11,NNE,27,0.0,0.0,91,0.00,,,0.03,WUHU216DAVISVP2,2013-02-04 02:54:00,
2013-02-03 19:59:00,41.5,39.1,30.11,NNE,27,0.0,0.0,91,0.00,,,0.03,WUHU216DAVISVP2,2013-02-04 02:59:00,
2013-02-03 20:04:00,41.4,39.2,30.11,NNE,27,0.0,0.0,92,0.00,,,0.03,WUHU216DAVISVP2,2013-02-04 03:04:00,
2013-02-03 20:09:00,41.4,39.2,30.11,NNE,27,0.0,0.0,92,0.00,,,0.03,WUHU216DAVISVP2,2013-02-04 03:09:00,
2013-02-03 20:14:00,41.3,39.1,30.11,NNE,27,0.0,0.0,92,0.00,,,0.03,WUHU216DAVISVP2,2013-02-04 03:14:00,
2013-02-03 20:19:00,41.3,39.2,30.11,NNE,27,0.0,0.0,92,0.00,,,0.03,WUHU216DAVISVP2,2013-02-04 03:19:00,
2013-02-03 20:24:00,41.3,39.2,30.11,NNE,27,0.0,0.0,92,0.00,,,0.03,WUHU216DAVISVP2,2013-02-04 03:24:00,
2013-02-03 20:29:00,41.2,39.0,30.11,NNE,27,0.0,0.0,92,0.00,,,0.03,WUHU216DAVISVP2,2013-02-04 03:29:00,
2013-02-03 20:34:00,41.1,38.9,30.11,NNE,27,0.0,0.0,92,0.00,,,0.03,WUHU216DAVISVP2,2013-02-04 03:34:00,
2013-02-03 20:39:00,41.2,39.0,30.11,NNE,27,0.0,0.0,92,0.00,,,0.03,WUHU216DAVISVP2,2013-02-04 03:39:00,
2013-02-03 20:44:00,41.3,39.1,30.11,NNE,27,0.0,0.0,92,0.00,,,0.03,WUHU216DAVISVP2,2013-02-04 03:44:00,
2013-02-03 20:49:00,41.4,39.2,30.11,NNE,27,0.0,0.0,92,0.00,,,0.03,WUHU216DAVISVP2,2013-02-04 03:49:00,
2013-02-03 20:54:00,41.4,38.9,30.11,NNE,27,0.0,0.0,91,0.00,,,0.03,WUHU216DAVISVP2,2013-02-04 03:54:00,
2013-02-03 20:59:00,41.4,39.0,30.11,NNE,27,0.0,0.0,91,0.00,,,0.03,WUHU216DAVISVP2,2013-02-04 03:59:00,
2013-02-03 21:04:00,41.4,38.9,30.11,NNE,27,0.0,0.0,91,0.00,,,0.03,WUHU216DAVISVP2,2013-02-04 04:04:00,
2013-02-03 21:09:00,41.3,38.8,30.11,NNE,27,0.0,0.0,91,0.00,,,0.03,WUHU216DAVISVP2,2013-02-04 04:09:00,
2013-02-03 21:14:00,41.2,39.0,30.11,NNE,27,0.0,0.0,92,0.00,,,0.03,WUHU216DAVISVP2,2013-02-04 04:14:00,
2013-02-03 21:19:00,41.1,38.9,30.11,NNE,27,0.0,0.0,92,0.00,,,0.03,WUHU216DAVISVP2,2013-02-04 04:19:00,
2013-02-03 21:24:00,41.0,38.8,30.11,NNE,27,0.0,0.0,92,0.00,,,0.03,WUHU216DAVISVP2,2013-02-04 04:24:00,
2013-02-03 21:29:00,40.9,38.4,30.11,NNE,27,0.0,0.0,91,0.00,,,0.03,WUHU216DAVISVP2,2013-02-04 04:29:00,
2013-02-03 21:34:00,40.8,38.1,30.11,NNE,27,0.0,1.0,90,0.00,,,0.03,WUHU216DAVISVP2,2013-02-04 04:34:00,
2013-02-03 21:39:00,40.6,37.9,30.12,NNE,27,0.0,1.0,90,0.00,,,0.03,WUHU216DAVISVP2,2013-02-04 04:39:00,
2013-02-03 21:44:00,40.4,37.7,30.12,NNE,27,0.0,0.0,90,0.00,,,0.03,WUHU216DAVISVP2,2013-02-04 04:44:00,
2013-02-03 21:49:00,40.3,37.6,30.12,NNE,27,0.0,1.0,90,0.00,,,0.03,WUHU216DAVISVP2,2013-02-04 04:49:00,
2013-02-03 21:54:00,40.3,37.6,30.12,NNE,27,0.0,2.0,90,0.00,,,0.03,WUHU216DAVISVP2,2013-02-04 04:54:00,
2013-02-03 21:59:00,40.4,37.7,30.12,NNE,27,1.0,2.0,90,0.00,,,0.03,WUHU216DAVISVP2,2013-02-04 04:59:00,
2013-02-03 22:00:00,40.4,37.7,30.12,NNE,27,1.0,2.0,90,0.00,,,0.03,WUHU216DAVISVP2,2013-02-04 05:00:00,
2013-02-03 22:01:00,40.4,37.7,30.12,NNE,27,0.0,2.0,90,0.00,,,0.03,WUHU216DAVISVP2,2013-02-04 05:01:00,
2013-02-03 22:06:00,40.4,37.7,30.12,NNE,27,0.0,1.0,90,0.00,,,0.03,WUHU216DAVISVP2,2013-02-04 05:06:00,
2013-02-03 22:11:00,40.4,37.9,30.12,NNE,27,0.0,2.0,91,0.00,,,0.03,WUHU216DAVISVP2,2013-02-04 05:11:00,
2013-02-03 22:16:00,40.1,37.9,30.12,NNE,27,0.0,2.0,92,0.00,,,0.03,WUHU216DAVISVP2,2013-02-04 05:16:00,
2013-02-03 22:21:00,39.9,38.0,30.11,NNE,27,0.0,0.0,93,0.00,,,0.03,WUHU216DAVISVP2,2013-02-04 05:21:00,
2013-02-03 22:26:00,39.7,37.8,30.12,NNE,27,0.0,0.0,93,0.00,,,0.03,WUHU216DAVISVP2,2013-02-04 05:26:00,
2013-02-03 22:31:00,39.7,38.1,30.12,NNE,27,0.0,0.0,94,0.00,,,0.03,WUHU216DAVISVP2,2013-02-04 05:31:00,
2013-02-03 22:36:00,39.4,37.8,30.12,NNE,28,0.0,2.0,94,0.00,,,0.03,WUHU216DAVISVP2,2013-02-04 05:36:00,
2013-02-03 22:41:00,39.3,37.7,30.12,NNE,28,0.0,2.0,94,0.00,,,0.03,WUHU216DAVISVP2,2013-02-04 05:41:00,
2013-02-03 22:46:00,39.0,37.4,30.12,NNE,28,0.0,1.0,94,0.00,,,0.03,WUHU216DAVISVP2,2013-02-04 05:46:00,
2013-02-03 22:51:00,38.8,37.2,30.12,NNE,28,0.0,1.0,94,0.00,,,0.03,WUHU216DAVISVP2,2013-02-04 05:51:00,
2013-02-03 22:56:00,38.5,36.9,30.12,NNE,28,0.0,1.0,94,0.00,,,0.03,WUHU216DAVISVP2,2013-02-04 05:56:00,
2013-02-03 23:01:00,38.4,36.8,30.11,NNE,28,0.0,0.0,94,0.00,,,0.03,WUHU216DAVISVP2,2013-02-04 06:01:00,
2013-02-03 23:06:00,38.5,37.2,30.11,NNE,28,0.0,0.0,95,0.00,,,0.03,WUHU216DAVISVP2,2013-02-04 06:06:00,
2013-02-03 23:11:00,38.7,37.4,30.11,NNE,28,0.0,0.0,95,0.00,,,0.03,WUHU216DAVISVP2,2013-02-04 06:11:00,
2013-02-03 23:16:00,38.8,37.4,30.11,NNE,28,0.0,0.0,95,0.00,,,0.03,WUHU216DAVISVP2,2013-02-04 06:16:00,
2013-02-03 23:21:00,38.4,36.8,30.11,NNE,28,0.0,0.0,94,0.00,,,0.03,WUHU216DAVISVP2,2013-02-04 06:21:00,
2013-02-03 23:26:00,38.0,36.4,30.12,NNE,28,0.0,1.0,94,0.00,,,0.03,WUHU216DAVISVP2,2013-02-04 06:26:00,
2013-02-03 23:31:00,37.6,35.7,30.12,NNE,28,0.0,1.0,93,0.00,,,0.03,WUHU216DAVISVP2,2013-02-04 06:31:00,
2013-02-03 23:36:00,37.3,35.7,30.12,NNE,28,0.0,0.0,94,0.00,,,0.03,WUHU216DAVISVP2,2013-02-04 06:36:00,
2013-02-03 23:41:00,37.3,36.0,30.12,NNE,28,0.0,0.0,95,0.00,,,0.03,WUHU216DAVISVP2,2013-02-04 06:41:00,
2013-02-03 23:46:00,37.6,36.5,30.12,NNE,28,0.0,0.0,96,0.00,,,0.03,WUHU216DAVISVP2,2013-02-04 06:46:00,
2013-02-03 23:51:00,37.8,36.5,30.12,NNE,28,0.0,0.0,95,0.00,,,0.03,WUHU216DAVISVP2,2013-02-04 06:51:00,
2013-02-03 23:56:00,37.7,36.4,30.12,NNE,28,0.0,0.0,95,0.00,,,0.03,WUHU216DAVISVP2,2013-02-04 06:56:00,